CAPE
363 684 1131 1295 1134 1446 1356 1362 970 737 571 396 422 985 1142 1066 1043 1184 1209 1736 2651 2754 2668 2117 2381 1966 1892 1812 1591 1441 1509 1369 1390 1110 755 771 923 1040 1191 999 803 722 691
265 553 897 1015 965 1265 1407 1174 1066 984 745 771 801 762 888 1209 1228 1426 1425 1211 2955 2543 2275 2094 2074 2000 1892 1699 1913 1487 1319 1169 1554 1425 1164 1135 1068 910 833 688 765 811 962
390 624 747 1000 1039 1559 1497 1423 1239 997 857 876 626 599 754 1146 1067 949 942 1078 1762 2500 2249 1911 2189 1608 1852 1900 1678 1845 2005 1691 1763 1639 1517 1136 1090 1004 781 705 597 659 782
583 711 992 1259 1067 1495 1225 1284 1250 1037 712 447 432 233 405 730 796 770 438 579 596 1179 1689 2135 2364 1807 2093 1761 1345 1704 2189 2012 1924 1851 1688 1447 1315 1016 912 873 659 666 726
652 784 1042 1225 1448 1508 1348 1301 1047 933 742 578 566 406 427 449 661 752 987 720 624 962 874 1439 1951 1921 1715 1698 1619 1103 1239 1031 817 706 719 983 1239 1292 1166 1039 898 742 685
752 930 1222 1357 1582 1701 1430 1132 713 622 516 697 1000 774 609 312 364 364 487 663 538 454 502 726 880 1045 1900 1810 1676 1043 894 686 300 125 185 342 696 887 873 788 806 832 712
969 1247 1425 1295 1546 1615 1344 1041 879 697 487 872 793 464 350 267 72 308 306 571 386 189 736 647 693 859 870 1763 1552 1508 1052 544 225 184 234 433 471 418 62 4 3 33 219
883 1413 1412 1172 1428 1626 1205 976 569 586 435 809 558 344 352 158 41 47 105 200 387 273 407 743 1019 778 723 480 798 1381 1145 698 375 219 115 285 174 141 26 5 0 0 17
1280 1557 1567 1356 1423 1432 1110 1008 613 352 706 695 597 654 367 111 108 13 31 78 10 58 114 245 807 739 879 610 579 985 1340 1094 735 373 267 370 362 123 32 0 0 0 0
1334 1597 1499 1633 1527 1159 1243 1122 916 802 552 623 665 771 592 584 422 51 30 1 0 10 89 173 519 514 596 804 693 727 907 907 936 666 606 452 664 287 16 0 0 0 0
1179 1625 1703 1767 1697 1333 1549 1195 1222 846 454 201 585 778 779 663 505 240 105 2 16 46 7 16 173 209 667 967 947 720 948 896 901 939 1024 980 1002 630 121 0 0 0 0
911 1019 1614 1737 1763 1581 1600 1505 1328 1367 834 681 889 1113 869 666 534 402 211 212 114 278 467 509 636 928 1202 1186 1147 964 947 938 846 832 764 1011 1155 1071 237 3 0 1 2
776 859 1117 1431 1533 1692 1816 1733 1659 1431 746 747 453 485 878 723 720 591 325 144 80 193 70 302 610 922 1088 1183 1075 965 1166 892 951 1030 1038 853 661 807 365 77 0 0 1
1156 1038 929 1042 1247 1642 1615 1758 1544 1320 1114 610 510 515 829 915 889 581 275 303 145 169 126 134 193 241 261 541 271 86 358 798 1194 1213 1182 1087 813 386 154 90 47 4 0
988 1206 1293 1125 937 1387 1665 1400 1329 1008 978 612 592 1101 1052 992 831 720 543 283 161 131 66 111 112 32 8 19 51 71 27 78 805 1401 1243 1194 946 638 101 0 0 0 0
1618 1344 1176 1300 1331 1258 1182 1113 1002 832 715 66 209 349 1125 1066 787 657 525 367 115 109 151 50 41 76 29 47 35 74 89 4 56 302 687 762 879 684 312 66 10 0 0
1271 977 731 978 1076 1025 1020 983 921 820 446 417 461 433 1158 867 666 469 278 155 63 40 104 145 159 119 38 49 77 145 160 27 81 465 439 516 331 668 476 491 469 223 46
293 608 247 139 456 529 530 551 301 643 716 691 539 773 865 941 730 366 124 200 35 60 263 179 325 253 150 192 216 286 181 294 728 808 808 989 405 567 615 673 589 425 437
96 56 82 0 0 96 172 187 278 333 420 531 554 815 788 700 619 671 286 194 219 360 289 217 193 274 449 589 506 299 189 378 496 922 1205 1244 974 833 798 771 1044 1062 942
245 10 40 5 7 0 66 65 73 53 118 193 197 220 309 364 242 500 562 561 314 265 149 170 228 290 303 230 132 10 0 32 205 365 532 885 1086 1197 1127 1170 1079 1055 1009
68 81 54 15 0 0 0 8 4 27 80 73 71 59 65 66 149 192 243 169 109 103 60 61 80 71 80 102 24 0 4 4 0 18 75 59 101 313 491 631 615 879 1038
85 52 62 52 0 0 0 0 7 40 48 41 8 7 34 27 15 41 42 48 47 28 18 36 49 75 61 31 0 1 0 0 0 5 75 46 36 28 1 0 0 0 134
141 40 54 10 3 0 1 2 1 8 33 33 28 23 31 25 3 13 21 9 33 34 29 40 25 26 36 10 0 1 0 0 0 0 0 0 0 0 0 0 0 0 0
156 100 12 0 6 0 0 0 0 14 48 58 56 53 69 86 56 15 0 0 1 3 3 3 3 1 1 0 0 0 0 0 0 0 0 0 0 0 0 0 0 0 0
52 28 4 0 0 0 0 0 0 0 1 5 6 23 26 2 0 0 0 2 0 2 3 2 11 7 0 10 3 0 0 0 0 0 0 0 0 0 0 0 0 0 0
36 9 6 22 7 8 0 0 0 0 0 0 0 0 0 0 0 0 0 0 0 0 0 0 0 0 8 22 0 0 1 0 0 0 0 0 0 0 0 0 35 47 69
CIN
-27 -23 -109 -49 -46 -88 -71 -66 -48 -50 -19 -37 -91 -142 -129 -107 -180 -151 -136 -113 -62 -47 -30 -13 -4 -4 -0 -0 -2 -3 -2 -0 -1 -1 -1 -1 -2 -1 -0 -1 -3 -1 -3
-74 -157 -80 -40 -70 -75 -48 -53 -35 -50 -37 -114 -112 -89 -205 -149 -141 -130 -87 -74 -48 -56 -35 -13 -5 -0 -0 -0 -0 -0 -3 -3 -0 -0 -1 -1 -0 -1 -1 -1 -1 -1 -0
-27 -121 -18 -26 -36 -57 -44 -48 -67 -80 -62 -82 -87 -46 -191 -179 -214 -104 -73 -92 -88 -39 -37 -41 -9 -8 -0 -0 -0 -0 -0 -1 -0 -0 -1 -2 -1 -1 -0 -0 -0 -1 -1
-135 -109 -92 -26 -87 -39 -25 -96 -63 -39 -27 -33 -44 -81 -258 -177 -123 -135 -135 -59 -182 -136 -78 -48 -10 -15 -3 -0 -1 -0 -0 -0 -0 -0 -0 -0 -0 -1 -1 -0 -0 -0 -1
-110 -90 -140 -67 -38 -41 -28 -40 -49 -50 -26 -42 -43 -94 -78 -160 -153 -168 -161 -185 -197 -160 -167 -100 -38 -18 -9 -5 -0 -6 -0 -1 -4 -9 -4 -0 -0 -0 -0 -0 -0 -0 -0
-153 -88 -151 -127 -64 -39 -34 -31 -21 -25 -115 -46 -92 -136 -72 -128 -143 -161 -141 -124 -105 -162 -231 -173 -147 -87 -7 -4 -0 -6 -6 -4 -50 -92 -90 -16 -0 -0 -0 -0 -0 -0 -0
-147 -104 -73 -54 -48 -53 -33 -41 -37 -20 -139 -78 -75 -99 -81 -75 -74 -56 -101 -90 -51 -164 -187 -181 -169 -132 -82 -9 -4 -2 -2 -40 -84 -104 -100 -28 -0 -0 -82 -205 -62 -132 -31
-166 -128 -52 -17 -80 -33 -40 -35 -47 -132 -166 -89 -32 -47 -48 -49 -58 -118 -129 -71 -93 -88 -89 -127 -98 -96 -118 -118 -81 -14 -8 -26 -72 -104 -152 -57 -73 -67 -145 -144 -0 -0 -127
-136 -76 -52 -10 -41 -38 -24 -21 -26 -58 -68 -64 -46 -27 -21 -37 -39 -123 -223 -90 -205 -131 -109 -122 -94 -93 -64 -40 -87 -60 -21 -9 -54 -83 -117 -69 -30 -77 -157 -0 -0 -0 -0
-133 -84 -46 -24 -18 -28 -22 -29 -30 -17 -59 -67 -61 -61 -29 -45 -23 -40 -37 -7 -0 -31 -70 -69 -88 -72 -180 -90 -51 -78 -92 -53 -11 -20 -39 -70 -23 -38 -168 -0 -0 -0 -0
-154 -116 -84 -29 -27 -42 -35 -18 -19 -11 -24 -51 -95 -43 -52 -40 -28 -32 -71 -5 -297 -260 -55 -49 -60 -91 -212 -136 -78 -57 -137 -120 -75 -33 -12 -29 -13 -26 -103 -0 -0 -0 -0
-41 -138 -84 -35 -43 -64 -46 -22 -20 -12 -25 -39 -105 -39 -28 -21 -27 -30 -73 -64 -148 -171 -126 -155 -164 -158 -129 -135 -79 -53 -72 -139 -138 -41 -81 -42 -14 -7 -103 -57 -0 -0 -0
-52 -104 -60 -45 -35 -131 -75 -46 -30 -27 -61 -52 -46 -119 -59 -43 -33 -37 -72 -98 -30 -197 -89 -184 -138 -105 -85 -56 -48 -58 -81 -48 -31 -41 -49 -52 -101 -68 -103 -167 -0 -0 -0
-34 -17 -33 -73 -180 -163 -104 -49 -42 -50 -37 -53 -52 -61 -108 -70 -29 -37 -51 -39 -131 -177 -225 -130 -74 -190 -172 -100 -74 -230 -85 -138 -92 -39 -38 -42 -59 -146 -216 -195 -159 -68 -0
-137 -98 -59 -55 -179 -151 -75 -60 -39 -47 -34 -46 -184 -81 -31 -36 -31 -49 -55 -41 -106 -101 -180 -106 -174 -84 -345 -430 -291 -212 -226 -352 -110 -37 -56 -37 -57 -63 -154 -0 -0 -0 -0
-51 -42 -226 -216 -116 -67 -51 -53 -30 -36 -30 -50 -43 -218 -64 -34 -50 -57 -46 -48 -112 -81 -78 -95 -180 -220 -431 -425 -382 -353 -300 -309 -343 -198 -124 -102 -60 -58 -99 -140 -63 -0 -0
-23 -42 -265 -190 -213 -115 -60 -47 -40 -33 -36 -31 -33 -198 -39 -34 -43 -45 -75 -138 -54 -113 -88 -130 -100 -204 -364 -395 -430 -349 -216 -76 -132 -27 -30 -52 -182 -73 -54 -27 -30 -62 -137
-190 -66 -52 -261 -193 -43 -64 -38 -15 -125 -62 -39 -40 -40 -50 -31 -27 -50 -50 -46 -23 -244 -64 -29 -125 -170 -266 -245 -211 -115 -92 -134 -32 -33 -37 -33 -54 -37 -24 -15 -14 -14 -4
-39 -38 -49 -0 -0 -126 -66 -70 -25 -67 -80 -58 -57 -54 -40 -46 -56 -51 -50 -36 -92 -58 -52 -32 -95 -102 -99 -53 -36 -72 -187 -113 -111 -58 -40 -17 -21 -21 -21 -11 -1 -1 -0
-40 -294 -320 -66 -104 -2 -29 -20 -12 -23 -35 -44 -44 -46 -49 -59 -62 -58 -47 -21 -19 -37 -23 -21 -53 -56 -56 -47 -101 -74 -0 -107 -48 -36 -74 -63 -35 -25 -22 -16 -11 -7 -9
-258 -315 -280 -267 -0 -0 -7 -57 -61 -41 -19 -38 -17 -32 -22 -57 -40 -40 -42 -45 -18 -25 -41 -28 -11 -18 -74 -72 -110 -0 -128 -151 -0 -81 -105 -113 -91 -53 -31 -10 -41 -27 -16
-35 -94 -313 -319 -4 -0 -0 -0 -69 -32 -5 -2 -79 -30 -0 -51 -10 -19 -18 -27 -0 -2 -11 -10 -14 -6 -5 -11 -0 -17 -0 -0 -1 -191 -223 -235 -190 -193 -26 -0 -0 -0 -17
-92 -347 -351 -362 -72 -0 -24 -15 -64 -56 -94 -97 -40 -31 -37 -17 -36 -11 -16 -12 -0 -0 -0 -0 -0 -2 -4 -20 -0 -3 -0 -0 -0 -0 -0 -0 -0 -0 -0 -0 -0 -0 -0
-184 -241 -125 -0 -260 -0 -0 -0 -0 -47 -24 -38 -26 -6 -0 -0 -2 -15 -0 -0 -2 -1 -5 -43 -64 -22 -12 -0 -0 -0 -0 -0 -0 -0 -0 -0 -0 -0 -0 -0 -0 -0 -0
-252 -280 -185 -0 -0 -0 -0 -0 -0 -0 -10 -7 -4 -8 -11 -8 -0 -0 -0 -60 -0 -15 -38 -2 -27 -52 -0 -26 -40 -8 -0 -0 -0 -0 -0 -0 -0 -0 -0 -0 -0 -0 -0
-338 -246 -360 -266 -215 -178 -0 -0 -0 -0 -0 -0 -0 -0 -0 -0 -0 -0 -0 -0 -0 -0 -0 -0 -0 -0 -18 -11 -0 -0 -6 -0 -0 -0 -0 -0 -0 -0 -0 -38 -158 -86 -61
Wind_Speed
6 5 4 5 7 7 6 7 8 8 7 4 3 5 4 4 2 0 0 10 13 14 12 15 17 18 14 14 17 19 20 21 19 19 19 17 15 14 12 10 9 12 15
7 6 4 3 4 5 5 5 5 6 6 6 5 13 9 12 6 6 6 2 7 8 8 10 14 21 23 22 19 19 17 17 16 16 15 14 15 16 14 13 12 12 13
6 5 4 2 1 4 6 4 8 8 9 11 8 6 7 13 4 12 10 6 7 4 5 3 10 16 22 22 19 16 18 17 17 17 17 16 15 15 15 16 16 16 11
4 3 3 2 5 5 10 9 6 7 6 8 6 7 10 9 5 8 9 10 9 9 4 2 6 11 13 17 18 17 15 13 10 11 14 16 17 18 19 20 20 17 14
6 5 6 5 4 9 11 12 9 9 7 6 9 9 9 11 3 11 12 11 18 13 10 5 3 6 10 12 13 14 15 13 11 8 7 10 12 13 15 17 16 17 18
7 9 8 7 8 12 13 14 12 12 16 8 8 8 8 10 9 8 15 7 14 14 14 9 7 9 6 5 10 13 13 14 14 11 10 11 10 9 11 11 12 13 14
10 10 10 9 12 16 11 13 14 14 11 16 15 12 10 10 nan 11 12 13 12 18 16 10 8 11 10 6 5 5 9 10 11 9 5 5 6 6 nan nan nan nan 9
11 13 12 13 14 16 14 12 17 14 10 15 12 13 13 13 nan nan 14 14 15 17 15 15 10 10 13 11 7 4 4 7 9 9 5 3 4 4 nan nan nan nan nan
13 14 14 16 15 17 12 16 15 14 10 11 17 16 14 12 11 nan nan nan nan nan 12 16 15 11 12 12 8 4 3 4 8 9 5 3 2 3 nan nan nan nan nan
15 16 16 16 18 19 13 17 15 14 15 12 16 16 17 16 14 nan nan nan nan nan nan 12 16 12 11 11 7 3 4 1 3 8 6 5 2 2 nan nan nan nan nan
17 15 17 19 18 19 17 21 20 15 15 16 17 20 17 15 16 19 16 nan nan nan nan nan 16 14 12 12 14 11 6 4 2 5 8 6 3 1 4 nan nan nan nan
21 18 20 21 21 22 22 22 22 19 17 16 17 18 22 20 16 16 19 18 20 20 23 16 18 23 18 19 14 9 8 7 5 4 4 4 2 1 2 nan nan nan nan
27 24 25 25 25 25 25 28 26 27 23 22 21 21 21 22 22 20 22 22 nan 21 nan 26 23 27 29 32 29 24 14 12 10 7 6 5 3 5 3 nan nan nan nan
34 32 32 32 31 31 30 31 30 32 31 24 24 19 20 20 26 25 24 25 21 24 19 22 22 19 19 38 30 nan 26 22 10 8 8 7 6 6 5 nan nan nan nan
26 29 31 34 35 37 39 37 35 36 36 31 32 27 32 28 27 28 27 26 28 25 nan 14 19 nan nan nan nan nan nan nan 22 15 10 9 11 9 9 nan nan nan nan
24 21 28 30 31 36 44 46 42 41 37 nan 25 26 23 22 24 29 29 29 30 29 23 nan nan nan nan nan nan nan nan nan nan 13 17 12 21 16 18 nan nan nan nan
23 10 11 16 26 31 31 34 43 43 38 36 30 27 28 29 33 30 25 30 nan nan 25 25 21 18 nan nan nan 19 14 nan nan 5 8 6 12 18 19 18 13 10 nan
29 11 12 16 27 32 30 28 37 44 45 42 35 32 32 36 36 34 30 25 nan nan 24 22 21 16 15 23 14 11 11 13 10 6 6 7 11 14 16 16 14 14 13
nan nan nan nan nan nan 26 30 42 52 52 49 47 41 37 36 36 36 35 33 29 29 30 24 24 20 18 34 15 19 18 16 15 12 14 12 15 14 11 11 14 15 15
9 nan nan nan nan nan nan nan nan nan 55 42 44 44 40 38 34 35 39 36 27 26 27 22 25 28 26 22 23 nan nan nan 23 24 22 20 20 15 15 13 15 17 16
nan nan nan nan nan nan nan nan nan nan nan nan nan nan nan nan 28 33 30 30 20 20 nan nan nan nan nan 32 nan nan nan nan nan nan nan nan 29 27 26 21 16 16 19
nan nan nan nan nan nan nan nan nan nan nan nan nan nan nan nan nan nan nan nan nan nan nan nan nan nan nan nan nan nan nan nan nan nan nan nan nan nan nan nan nan nan 25
27 nan nan nan nan nan nan nan nan nan nan nan nan nan nan nan nan nan nan nan nan nan nan nan nan nan nan nan nan nan nan nan nan nan nan nan nan nan nan nan nan nan nan
27 33 nan nan nan nan nan nan nan nan nan nan nan nan nan nan nan nan nan nan nan nan nan nan nan nan nan nan nan nan nan nan nan nan nan nan nan nan nan nan nan nan nan
nan nan nan nan nan nan nan nan nan nan nan nan nan nan nan nan nan nan nan nan nan nan nan nan nan nan nan nan nan nan nan nan nan nan nan nan nan nan nan nan nan nan nan
nan nan nan nan nan nan nan nan nan nan nan nan nan nan nan nan nan nan nan nan nan nan nan nan nan nan nan nan nan nan nan nan nan nan nan nan nan nan nan nan nan nan nan
Wind_Direction
58 68 55 34 20 29 12 354 358 20 11 52 21 355 0 21 71 278 124 74 74 48 29 40 47 56 74 95 95 89 84 74 70 70 69 70 67 57 48 46 38 33 29
48 49 65 64 15 352 356 328 354 344 348 5 353 360 9 14 228 275 242 164 47 13 6 35 49 68 79 92 95 94 90 80 78 75 77 73 68 64 59 57 58 49 39
47 38 31 44 19 264 316 330 307 330 331 336 10 304 354 344 304 254 239 233 261 311 338 8 62 64 88 99 102 95 91 83 81 88 84 78 73 67 65 65 67 66 47
9 351 318 260 256 273 288 275 291 294 333 323 299 337 336 357 260 284 269 236 225 247 260 336 81 84 93 110 110 111 100 93 101 99 98 91 85 73 66 65 68 71 68
322 306 306 305 269 273 284 286 289 288 277 289 290 287 296 305 277 283 317 297 229 231 245 247 158 109 91 96 109 113 105 107 111 122 123 112 96 89 77 70 68 64 61
304 298 294 284 276 275 269 274 287 284 301 294 271 288 281 277 299 309 325 291 205 230 239 248 220 205 149 107 116 117 110 107 103 106 104 105 95 87 92 97 91 82 68
283 289 283 282 277 285 279 291 279 296 282 270 266 264 278 286 nan 292 312 355 239 232 231 244 228 230 210 174 153 146 115 102 101 91 89 87 81 77 nan nan nan nan 93
278 290 304 284 287 276 277 281 279 280 266 299 275 274 264 259 nan nan 315 307 318 246 229 232 231 233 222 216 198 147 108 105 91 73 59 45 46 39 nan nan nan nan nan
276 285 287 284 286 286 281 281 283 289 283 271 292 290 281 289 283 nan nan nan nan nan 249 248 238 222 228 227 222 193 77 84 90 88 67 32 82 117 nan nan nan nan nan
275 280 283 292 287 283 285 281 282 277 277 270 270 287 270 287 286 nan nan nan nan nan nan 257 242 216 227 234 261 261 254 254 91 92 94 108 153 136 nan nan nan nan nan
273 275 282 284 287 281 277 281 286 289 281 281 278 276 271 268 271 286 278 nan nan nan nan nan 234 215 229 231 232 235 263 267 236 117 137 140 159 32 148 nan nan nan nan
264 267 265 272 276 276 280 281 281 288 285 280 279 275 282 276 270 274 282 278 284 276 262 255 248 257 225 236 238 225 236 231 219 194 197 184 175 304 143 nan nan nan nan
278 276 273 272 270 277 282 283 286 283 281 281 285 272 279 280 273 268 270 277 nan 302 nan 261 246 247 245 238 229 215 213 224 207 218 230 220 210 314 315 nan nan nan nan
290 289 292 289 287 286 280 283 280 281 286 283 278 266 278 277 280 274 274 278 279 282 271 243 235 251 281 246 259 nan 227 213 209 226 241 250 251 254 275 nan nan nan nan
310 295 289 287 289 289 284 280 278 278 281 289 277 271 272 259 270 271 270 268 267 270 nan 261 245 nan nan nan nan nan nan nan 233 231 227 256 272 267 272 nan nan nan nan
287 294 359 312 292 323 290 279 273 272 279 nan 274 283 277 277 277 273 271 267 263 256 256 nan nan nan nan nan nan nan nan nan nan 221 228 254 285 292 263 nan nan nan nan
267 263 295 340 303 295 297 275 270 269 270 268 261 274 275 281 278 272 264 262 nan nan 243 259 267 290 nan nan nan 186 205 nan nan 169 214 250 315 298 267 257 271 279 nan
291 289 306 332 329 328 295 276 255 264 263 260 258 264 266 270 275 279 272 271 nan nan 269 269 266 259 237 221 219 209 238 259 249 253 315 312 309 316 275 250 253 254 265
nan nan nan nan nan nan 304 280 259 245 248 246 251 255 259 266 267 273 276 271 256 272 263 258 256 270 277 254 240 256 229 240 251 255 279 298 310 315 308 277 270 272 275
352 nan nan nan nan nan nan nan nan nan 250 246 245 253 252 257 267 268 277 273 248 251 235 255 262 266 273 266 254 nan nan nan 243 252 256 275 280 288 294 285 285 290 293
nan nan nan nan nan nan nan nan nan nan nan nan nan nan nan nan 257 277 274 267 267 265 nan nan nan nan nan 263 nan nan nan nan nan nan nan nan 254 263 268 280 277 284 293
nan nan nan nan nan nan nan nan nan nan nan nan nan nan nan nan nan nan nan nan nan nan nan nan nan nan nan nan nan nan nan nan nan nan nan nan nan nan nan nan nan nan 285
300 nan nan nan nan nan nan nan nan nan nan nan nan nan nan nan nan nan nan nan nan nan nan nan nan nan nan nan nan nan nan nan nan nan nan nan nan nan nan nan nan nan nan
290 297 nan nan nan nan nan nan nan nan nan nan nan nan nan nan nan nan nan nan nan nan nan nan nan nan nan nan nan nan nan nan nan nan nan nan nan nan nan nan nan nan nan
nan nan nan nan nan nan nan nan nan nan nan nan nan nan nan nan nan nan nan nan nan nan nan nan nan nan nan nan nan nan nan nan nan nan nan nan nan nan nan nan nan nan nan
nan nan nan nan nan nan nan nan nan nan nan nan nan nan nan nan nan nan nan nan nan nan nan nan nan nan nan nan nan nan nan nan nan nan nan nan nan nan nan nan nan nan nan